sat.trackr.live / text

‹ back to catalog

GJZ 02

NORAD 62291 · 2024-238B

PAYLOAD ACTIVE UNKNOWN

§ Identity

Operator
Country
PRC
Launch date
2024-12-12
Launch site
JSC
Launch vehicle
Mass (kg)
RCS (m²)

External: N2YO · Heavens-Above · Gunter

§ Orbital elements

Epoch: 2026-05-25T01:54:23.190912Z

Period
104.71 min
Inclination
59.9187°
Eccentricity
0.0007354
Mean motion
13.75201628 rev/d
Perigee alt
975.5 km
Apogee alt
986.4 km
Semi-major
7,359.1 km
B*
7.9631e-5
RAAN
320.7093°
Arg perigee
92.1351°
Mean anomaly
268.0499°
Rev number
7,310

§ Raw data

GJZ 021 62291U 24238B   26145.07943508 -.00000042  00000+0  79631-4 0  99992 62291  59.9187 320.7093 0007354  92.1351 268.0499 13.75201628 73109

JSON: /api/v1/satellites/62291 · /tle

For live sub-satellite position, see the globe view (requires WebGL).

§ Visibility from observer

Set your observer location to see the next 7 days of passes ≥ 10°. The values pass through the URL so the page stays shareable.

No JS? Fill the form by hand. The geolocation button needs JavaScript.